Year,Month,Day,Hour,Minute,Value (Times are PST for temperature in C)
2009,07,10,00,00,12.40
2009,07,10,00,01,12.40
2009,07,10,00,02,12.40
2009,07,10,00,03,12.40
2009,07,10,00,04,12.40
2009,07,10,00,05,12.30
2009,07,10,00,06,12.30
2009,07,10,00,07,12.30
2009,07,10,00,08,12.30
2009,07,10,00,09,12.30
2009,07,10,00,10,12.20
2009,07,10,00,11,12.20
2009,07,10,00,12,12.20
2009,07,10,00,13,12.20
2009,07,10,00,14,12.20
2009,07,10,00,15,12.20
2009,07,10,00,16,12.20
2009,07,10,00,17,12.20
2009,07,10,00,18,12.10
2009,07,10,00,19,12.10
2009,07,10,00,20,12.10
2009,07,10,00,21,12.10
2009,07,10,00,22,12.10
2009,07,10,00,23,12.10
2009,07,10,00,24,12.10
2009,07,10,00,25,12.10
2009,07,10,00,26,12.00
2009,07,10,00,27,12.00
2009,07,10,00,28,12.00
2009,07,10,00,29,12.00
2009,07,10,00,30,12.00
2009,07,10,00,31,12.00
2009,07,10,00,32,12.00
2009,07,10,00,33,12.00
2009,07,10,00,34,12.00
2009,07,10,00,35,12.00
2009,07,10,00,36,11.90
2009,07,10,00,37,11.90
2009,07,10,00,38,11.90
2009,07,10,00,39,11.90
2009,07,10,00,40,11.90
2009,07,10,00,41,11.90
2009,07,10,00,42,11.90
2009,07,10,00,43,11.90
2009,07,10,00,44,11.90
2009,07,10,00,45,11.90
2009,07,10,00,46,11.90
2009,07,10,00,47,11.80
2009,07,10,00,48,11.80
2009,07,10,00,49,11.80
2009,07,10,00,50,11.80
2009,07,10,00,51,11.70
2009,07,10,00,52,11.70
2009,07,10,00,53,11.70
2009,07,10,00,54,11.70
2009,07,10,00,55,11.70
2009,07,10,00,56,11.70
2009,07,10,00,57,11.60
2009,07,10,00,58,11.60
2009,07,10,00,59,11.60
2009,07,10,01,00,11.60
2009,07,10,01,01,11.60
2009,07,10,01,02,11.60
2009,07,10,01,03,11.60
2009,07,10,01,04,11.60
2009,07,10,01,05,11.50
2009,07,10,01,06,11.50
2009,07,10,01,07,11.50
2009,07,10,01,08,11.50
2009,07,10,01,09,11.50
2009,07,10,01,10,11.50
2009,07,10,01,11,11.50
2009,07,10,01,12,11.50
2009,07,10,01,13,11.50
2009,07,10,01,14,11.50
2009,07,10,01,15,11.50
2009,07,10,01,16,11.50
2009,07,10,01,17,11.50
2009,07,10,01,18,11.50
2009,07,10,01,19,11.50
2009,07,10,01,20,11.50
2009,07,10,01,21,11.50
2009,07,10,01,22,11.50
2009,07,10,01,23,11.40
2009,07,10,01,24,11.40
2009,07,10,01,25,11.40
2009,07,10,01,26,11.40
2009,07,10,01,27,11.40
2009,07,10,01,28,11.40
2009,07,10,01,29,11.40
2009,07,10,01,30,11.40
2009,07,10,01,31,11.40
2009,07,10,01,32,11.40
2009,07,10,01,33,11.40
2009,07,10,01,34,11.40
2009,07,10,01,35,11.40
2009,07,10,01,36,11.40
2009,07,10,01,37,11.30
2009,07,10,01,38,11.30
2009,07,10,01,39,11.30
2009,07,10,01,40,11.30
2009,07,10,01,41,11.30
2009,07,10,01,42,11.30
2009,07,10,01,43,11.30
2009,07,10,01,44,11.30
2009,07,10,01,45,11.30
2009,07,10,01,46,11.30
2009,07,10,01,47,11.30
2009,07,10,01,48,11.30
2009,07,10,01,49,11.30
2009,07,10,01,50,11.30
2009,07,10,01,51,11.20
2009,07,10,01,52,11.20
2009,07,10,01,53,11.20
2009,07,10,01,54,11.20
2009,07,10,01,55,11.20
2009,07,10,01,56,11.10
2009,07,10,01,57,11.10
2009,07,10,01,58,11.10
2009,07,10,01,59,11.10
2009,07,10,02,00,11.10
2009,07,10,02,01,11.10
2009,07,10,02,02,11.10
2009,07,10,02,03,11.10
2009,07,10,02,04,11.10
2009,07,10,02,05,11.10
2009,07,10,02,06,11.10
2009,07,10,02,07,11.10
2009,07,10,02,08,11.10
2009,07,10,02,09,11.10
2009,07,10,02,10,11.10
2009,07,10,02,11,11.10
2009,07,10,02,12,11.10
2009,07,10,02,13,11.10
2009,07,10,02,14,11.10
2009,07,10,02,15,11.00
2009,07,10,02,16,11.00
2009,07,10,02,17,11.00
2009,07,10,02,18,11.00
2009,07,10,02,19,10.90
2009,07,10,02,20,10.90
2009,07,10,02,21,10.90
2009,07,10,02,22,10.90
2009,07,10,02,23,10.90
2009,07,10,02,24,10.90
2009,07,10,02,25,10.90
2009,07,10,02,26,10.90
2009,07,10,02,27,10.90
2009,07,10,02,28,10.90
2009,07,10,02,29,10.90
2009,07,10,02,30,10.90
2009,07,10,02,31,10.80
2009,07,10,02,32,10.80
2009,07,10,02,33,10.80
2009,07,10,02,34,10.80
2009,07,10,02,35,10.80
2009,07,10,02,36,10.80
2009,07,10,02,37,10.80
2009,07,10,02,38,10.70
2009,07,10,02,39,10.70
2009,07,10,02,40,10.70
2009,07,10,02,41,10.70
2009,07,10,02,42,10.70
2009,07,10,02,43,10.70
2009,07,10,02,44,10.70
2009,07,10,02,45,10.70
2009,07,10,02,46,10.70
2009,07,10,02,47,10.80
2009,07,10,02,48,10.80
2009,07,10,02,49,10.80
2009,07,10,02,50,10.80
2009,07,10,02,51,10.80
2009,07,10,02,52,10.80
2009,07,10,02,53,10.70
2009,07,10,02,54,10.70
2009,07,10,02,55,10.70
2009,07,10,02,56,10.70
2009,07,10,02,57,10.70
2009,07,10,02,58,10.70
2009,07,10,02,59,10.70
2009,07,10,03,00,10.70
2009,07,10,03,01,10.70
2009,07,10,03,02,10.70
2009,07,10,03,06,10.70
2009,07,10,03,07,10.70
2009,07,10,03,08,10.70
2009,07,10,03,09,10.70
2009,07,10,03,10,10.70
2009,07,10,03,11,10.70
2009,07,10,03,12,10.70
2009,07,10,03,13,10.70
2009,07,10,03,14,10.70
2009,07,10,03,15,10.70
2009,07,10,03,16,10.70
2009,07,10,03,17,10.70
2009,07,10,03,18,10.70
2009,07,10,03,19,10.70
2009,07,10,03,20,10.70
2009,07,10,03,21,10.70
2009,07,10,03,22,10.70
2009,07,10,03,23,10.70
2009,07,10,03,24,10.70
2009,07,10,03,25,10.70
2009,07,10,03,26,10.70
2009,07,10,03,27,10.70
2009,07,10,03,28,10.60
2009,07,10,03,29,10.60
2009,07,10,03,30,10.60
2009,07,10,03,31,10.60
2009,07,10,03,32,10.60
2009,07,10,03,33,10.60
2009,07,10,03,34,10.60
2009,07,10,03,35,10.60
2009,07,10,03,36,10.60
2009,07,10,03,37,10.60
2009,07,10,03,38,10.60
2009,07,10,03,39,10.60
2009,07,10,03,40,10.60
2009,07,10,03,41,10.60
2009,07,10,03,42,10.60
2009,07,10,03,43,10.60
2009,07,10,03,44,10.60
2009,07,10,03,45,10.60
2009,07,10,03,46,10.60
2009,07,10,03,47,10.60
2009,07,10,03,48,10.60
2009,07,10,03,49,10.60
2009,07,10,03,50,10.50
2009,07,10,03,51,10.50
2009,07,10,03,52,10.50
2009,07,10,03,53,10.50
2009,07,10,03,54,10.50
2009,07,10,03,55,10.40
2009,07,10,03,56,10.40
2009,07,10,03,57,10.40
2009,07,10,03,58,10.40
2009,07,10,03,59,10.40
2009,07,10,04,00,10.40
2009,07,10,04,01,10.40
2009,07,10,04,02,10.40
2009,07,10,04,03,10.40
2009,07,10,04,04,10.40
2009,07,10,04,05,10.30
2009,07,10,04,06,10.30
2009,07,10,04,07,10.30
2009,07,10,04,08,10.30
2009,07,10,04,09,10.30
2009,07,10,04,10,10.30
2009,07,10,04,11,10.30
2009,07,10,04,12,10.40
2009,07,10,04,13,10.40
2009,07,10,04,14,10.40
2009,07,10,04,15,10.40
2009,07,10,04,16,10.30
2009,07,10,04,17,10.30
2009,07,10,04,18,10.30
2009,07,10,04,19,10.30
2009,07,10,04,20,10.30
2009,07,10,04,21,10.30
2009,07,10,04,22,10.30
2009,07,10,04,23,10.30
2009,07,10,04,24,10.30
2009,07,10,04,25,10.30
2009,07,10,04,26,10.30
2009,07,10,04,27,10.30
2009,07,10,04,28,10.30
2009,07,10,04,29,10.30
2009,07,10,04,30,10.30
2009,07,10,04,31,10.30
2009,07,10,04,32,10.20
2009,07,10,04,33,10.20
2009,07,10,04,34,10.20
2009,07,10,04,35,10.20
2009,07,10,04,36,10.20
2009,07,10,04,37,10.20
2009,07,10,04,38,10.20
2009,07,10,04,39,10.20
2009,07,10,04,40,10.20
2009,07,10,04,41,10.20
2009,07,10,04,42,10.20
2009,07,10,04,43,10.30
2009,07,10,04,44,10.30
2009,07,10,04,45,10.20
2009,07,10,04,46,10.20
2009,07,10,04,47,10.30
2009,07,10,04,48,10.30
2009,07,10,04,49,10.30
2009,07,10,04,50,10.30
2009,07,10,04,51,10.30
2009,07,10,04,52,10.30
2009,07,10,04,53,10.30
2009,07,10,04,54,10.30
2009,07,10,04,55,10.30
2009,07,10,04,56,10.30
2009,07,10,04,57,10.30
2009,07,10,04,58,10.30
2009,07,10,04,59,10.30
2009,07,10,05,00,10.30
2009,07,10,05,01,10.30
2009,07,10,05,02,10.30
2009,07,10,05,03,10.30
2009,07,10,05,04,10.30
2009,07,10,05,05,10.30
2009,07,10,05,06,10.30
2009,07,10,05,07,10.30
2009,07,10,05,08,10.30
2009,07,10,05,09,10.40
2009,07,10,05,10,10.40
2009,07,10,05,11,10.30
2009,07,10,05,12,10.30
2009,07,10,05,13,10.30
2009,07,10,05,14,10.30
2009,07,10,05,15,10.30
2009,07,10,05,16,10.30
2009,07,10,05,17,10.30
2009,07,10,05,18,10.30
2009,07,10,05,19,10.30
2009,07,10,05,20,10.30
2009,07,10,05,21,10.30
2009,07,10,05,22,10.30
2009,07,10,05,23,10.30
2009,07,10,05,24,10.30
2009,07,10,05,25,10.30
2009,07,10,05,26,10.30
2009,07,10,05,27,10.30
2009,07,10,05,28,10.30
2009,07,10,05,29,10.30
2009,07,10,05,30,10.30
2009,07,10,05,31,10.30
2009,07,10,05,32,10.30
2009,07,10,05,33,10.30
2009,07,10,05,34,10.30
2009,07,10,05,35,10.30
2009,07,10,05,36,10.30
2009,07,10,05,37,10.30
2009,07,10,05,38,10.30
2009,07,10,05,39,10.30
2009,07,10,05,40,10.30
2009,07,10,05,41,10.30
2009,07,10,05,42,10.30
2009,07,10,05,43,10.30
2009,07,10,05,44,10.30
2009,07,10,05,45,10.30
2009,07,10,05,46,10.30
2009,07,10,05,47,10.30
2009,07,10,05,48,10.30
2009,07,10,05,49,10.30
2009,07,10,05,50,10.40
2009,07,10,05,51,10.40
2009,07,10,05,52,10.40
2009,07,10,05,53,10.40
2009,07,10,05,54,10.40
2009,07,10,05,55,10.50
2009,07,10,05,56,10.50
2009,07,10,05,57,10.60
2009,07,10,05,58,10.60
2009,07,10,05,59,10.70
2009,07,10,06,00,10.70
2009,07,10,06,01,10.70
2009,07,10,06,02,10.70
2009,07,10,06,03,10.70
2009,07,10,06,04,10.70
2009,07,10,06,05,10.70
2009,07,10,06,06,10.80
2009,07,10,06,07,10.80
2009,07,10,06,08,10.80
2009,07,10,06,09,10.80
2009,07,10,06,10,10.80
2009,07,10,06,11,10.90
2009,07,10,06,12,10.90
2009,07,10,06,13,10.90
2009,07,10,06,14,10.90
2009,07,10,06,15,10.90
2009,07,10,06,16,10.90
2009,07,10,06,17,10.90
2009,07,10,06,18,10.90
2009,07,10,06,19,11.00
2009,07,10,06,20,11.00
2009,07,10,06,21,11.00
2009,07,10,06,22,11.00
2009,07,10,06,23,11.00
2009,07,10,06,24,11.10
2009,07,10,06,25,11.10
2009,07,10,06,26,11.10
2009,07,10,06,27,11.20
2009,07,10,06,28,11.20
2009,07,10,06,29,11.20
2009,07,10,06,30,11.30
2009,07,10,06,31,11.30
2009,07,10,06,32,11.40
2009,07,10,06,33,11.40
2009,07,10,06,34,11.40
2009,07,10,06,35,11.50
2009,07,10,06,36,11.50
2009,07,10,06,37,11.50
2009,07,10,06,38,11.60
2009,07,10,06,39,11.60
2009,07,10,06,40,11.60
2009,07,10,06,41,11.60
2009,07,10,06,42,11.60
2009,07,10,06,43,11.60
2009,07,10,06,44,11.70
2009,07,10,06,45,11.70
2009,07,10,06,46,11.70
2009,07,10,06,47,11.70
2009,07,10,06,48,11.70
2009,07,10,06,49,11.80
2009,07,10,06,50,11.80
2009,07,10,06,51,11.90
2009,07,10,06,52,11.90
2009,07,10,06,53,11.90
2009,07,10,06,54,12.00
2009,07,10,06,55,12.10
2009,07,10,06,56,12.10
2009,07,10,06,57,12.10
2009,07,10,06,58,12.20
2009,07,10,06,59,12.20
2009,07,10,07,00,12.30
2009,07,10,07,01,12.30
2009,07,10,07,02,12.40
2009,07,10,07,03,12.40
2009,07,10,07,04,12.50
2009,07,10,07,05,12.60
2009,07,10,07,06,12.70
2009,07,10,07,07,12.70
2009,07,10,07,08,12.80
2009,07,10,07,09,12.80
2009,07,10,07,10,12.90
2009,07,10,07,11,13.00
2009,07,10,07,12,13.10
2009,07,10,07,13,13.10
2009,07,10,07,14,13.20
2009,07,10,07,15,13.30
2009,07,10,07,16,13.30
2009,07,10,07,17,13.40
2009,07,10,07,18,13.50
2009,07,10,07,19,13.60
2009,07,10,07,20,13.70
2009,07,10,07,21,13.80
2009,07,10,07,22,13.90
2009,07,10,07,23,14.00
2009,07,10,07,24,14.10
2009,07,10,07,25,14.10
2009,07,10,07,26,14.20
2009,07,10,07,27,14.30
2009,07,10,07,28,14.40
2009,07,10,07,29,14.50
2009,07,10,07,30,14.60
2009,07,10,07,31,14.70
2009,07,10,07,32,14.80
2009,07,10,07,33,14.80
2009,07,10,07,34,14.90
2009,07,10,07,35,15.00
2009,07,10,07,36,15.00
2009,07,10,07,37,15.00
2009,07,10,07,38,15.00
2009,07,10,07,39,15.10
2009,07,10,07,40,15.20
2009,07,10,07,41,15.30
2009,07,10,07,42,15.40
2009,07,10,07,43,15.50
2009,07,10,07,44,15.60
2009,07,10,07,45,15.60
2009,07,10,07,46,15.70
2009,07,10,07,47,15.80
2009,07,10,07,48,15.80
2009,07,10,07,49,15.90
2009,07,10,07,50,15.90
2009,07,10,07,51,15.90
2009,07,10,07,52,16.00
2009,07,10,07,53,16.00
2009,07,10,07,54,16.10
2009,07,10,07,55,16.10
2009,07,10,07,56,16.10
2009,07,10,07,57,16.20
2009,07,10,07,58,16.20
2009,07,10,07,59,16.20
2009,07,10,08,00,16.30
2009,07,10,08,01,16.30
2009,07,10,08,02,16.30
2009,07,10,08,03,16.30
2009,07,10,08,04,16.40
2009,07,10,08,05,16.40
2009,07,10,08,06,16.50
2009,07,10,08,07,16.60
2009,07,10,08,08,16.60
2009,07,10,08,09,16.60
2009,07,10,08,10,16.70
2009,07,10,08,11,16.70
2009,07,10,08,12,16.70
2009,07,10,08,13,16.70
2009,07,10,08,14,16.70
2009,07,10,08,15,16.70
2009,07,10,08,16,16.70
2009,07,10,08,17,16.80
2009,07,10,08,18,16.80
2009,07,10,08,19,16.80
2009,07,10,08,20,16.80
2009,07,10,08,21,16.90
2009,07,10,08,22,17.00
2009,07,10,08,23,17.10
2009,07,10,08,24,17.20
2009,07,10,08,25,17.30
2009,07,10,08,26,17.30
2009,07,10,08,27,17.40
2009,07,10,08,28,17.50
2009,07,10,08,29,17.50
2009,07,10,08,30,17.60
2009,07,10,08,31,17.70
2009,07,10,08,32,17.70
2009,07,10,08,33,17.80
2009,07,10,08,34,17.80
2009,07,10,08,35,17.90
2009,07,10,08,36,17.90
2009,07,10,08,37,18.00
2009,07,10,08,38,18.00
2009,07,10,08,39,18.00
2009,07,10,08,40,18.00
2009,07,10,08,41,18.10
2009,07,10,08,42,18.10
2009,07,10,08,43,18.10
2009,07,10,08,44,18.20
2009,07,10,08,45,18.20
2009,07,10,08,46,18.30
2009,07,10,08,47,18.30
2009,07,10,08,48,18.40
2009,07,10,08,49,18.40
2009,07,10,08,50,18.50
2009,07,10,08,51,18.50
2009,07,10,08,52,18.60
2009,07,10,08,53,18.60
2009,07,10,08,54,18.70
2009,07,10,08,55,18.70
2009,07,10,08,56,18.80
2009,07,10,08,57,18.80
2009,07,10,08,58,18.90
2009,07,10,08,59,19.00
2009,07,10,09,00,19.00
2009,07,10,09,01,19.10
2009,07,10,09,02,19.10
2009,07,10,09,03,19.10
2009,07,10,09,04,19.10
2009,07,10,09,05,19.10
2009,07,10,09,06,19.20
2009,07,10,09,07,19.20
2009,07,10,09,08,19.30
2009,07,10,09,09,19.30
2009,07,10,09,10,19.30
2009,07,10,09,11,19.40
2009,07,10,09,12,19.50
2009,07,10,09,13,19.60
2009,07,10,09,14,19.60
2009,07,10,09,15,19.70
2009,07,10,09,16,19.70
2009,07,10,09,17,19.80
2009,07,10,09,18,19.80
2009,07,10,09,19,19.80
2009,07,10,09,20,19.80
2009,07,10,09,21,19.80
2009,07,10,09,22,19.80
2009,07,10,09,23,19.80
2009,07,10,09,24,19.80
2009,07,10,09,25,19.80
2009,07,10,09,26,19.80
2009,07,10,09,27,19.70
2009,07,10,09,28,19.70
2009,07,10,09,29,19.70
2009,07,10,09,30,19.70
2009,07,10,09,31,19.70
2009,07,10,09,32,19.80
2009,07,10,09,33,19.80
2009,07,10,09,34,19.90
2009,07,10,09,35,19.90
2009,07,10,09,36,19.90
2009,07,10,09,37,19.90
2009,07,10,09,38,19.90
2009,07,10,09,39,19.90
2009,07,10,09,40,20.00
2009,07,10,09,41,20.00
2009,07,10,09,42,20.00
2009,07,10,09,43,20.00
2009,07,10,09,44,20.00
2009,07,10,09,45,20.10
2009,07,10,09,46,20.20
2009,07,10,09,47,20.20
2009,07,10,09,48,20.30
2009,07,10,09,49,20.40
2009,07,10,09,50,20.40
2009,07,10,09,51,20.50
2009,07,10,09,52,20.60
2009,07,10,09,53,20.60
2009,07,10,09,54,20.70
2009,07,10,09,55,20.70
2009,07,10,09,56,20.70
2009,07,10,09,57,20.80
2009,07,10,09,58,20.80
2009,07,10,09,59,20.80
2009,07,10,10,00,20.80
2009,07,10,10,01,20.90
2009,07,10,10,02,20.90
2009,07,10,10,03,21.00
2009,07,10,10,04,21.00
2009,07,10,10,05,21.10
2009,07,10,10,06,21.20
2009,07,10,10,07,21.20
2009,07,10,10,08,21.20
2009,07,10,10,09,21.30
2009,07,10,10,10,21.30
2009,07,10,10,11,21.30
2009,07,10,10,12,21.30
2009,07,10,10,13,21.30
2009,07,10,10,14,21.30
2009,07,10,10,15,21.40
2009,07,10,10,16,21.40
2009,07,10,10,17,21.50
2009,07,10,10,18,21.50
2009,07,10,10,19,21.50
2009,07,10,10,20,21.40
2009,07,10,10,21,21.40
2009,07,10,10,22,21.30
2009,07,10,10,23,21.30
2009,07,10,10,24,21.30
2009,07,10,10,25,21.30
2009,07,10,10,26,21.20
2009,07,10,10,27,21.20
2009,07,10,10,28,21.20
2009,07,10,10,29,21.20
2009,07,10,10,30,21.30
2009,07,10,10,31,21.30
2009,07,10,10,32,21.40
2009,07,10,10,33,21.40
2009,07,10,10,34,21.50
2009,07,10,10,35,21.50
2009,07,10,10,36,21.50
2009,07,10,10,37,21.50
2009,07,10,10,38,21.40
2009,07,10,10,39,21.40
2009,07,10,10,40,21.30
2009,07,10,10,41,21.30
2009,07,10,10,42,21.40
2009,07,10,10,43,21.50
2009,07,10,10,44,21.60
2009,07,10,10,45,21.80
2009,07,10,10,46,21.80
2009,07,10,10,47,21.80
2009,07,10,10,48,21.80
2009,07,10,10,49,21.80
2009,07,10,10,50,21.80
2009,07,10,10,51,21.80
2009,07,10,10,52,21.80
2009,07,10,10,53,21.80
2009,07,10,10,54,21.90
2009,07,10,10,55,21.90
2009,07,10,10,56,22.00
2009,07,10,10,57,22.10
2009,07,10,10,58,22.20
2009,07,10,10,59,22.30
2009,07,10,11,00,22.40
2009,07,10,11,01,22.50
2009,07,10,11,02,22.60
2009,07,10,11,03,22.70
2009,07,10,11,04,22.60
2009,07,10,11,05,22.60
2009,07,10,11,06,22.60
2009,07,10,11,07,22.60
2009,07,10,11,08,22.50
2009,07,10,11,09,22.50
2009,07,10,11,10,22.30
2009,07,10,11,11,22.20
2009,07,10,11,12,22.20
2009,07,10,11,13,22.10
2009,07,10,11,14,22.10
2009,07,10,11,15,22.10
2009,07,10,11,16,22.00
2009,07,10,11,17,22.10
2009,07,10,11,18,22.10
2009,07,10,11,19,22.10
2009,07,10,11,20,22.10
2009,07,10,11,21,22.10
2009,07,10,11,22,22.10
2009,07,10,11,23,22.10
2009,07,10,11,24,22.10
2009,07,10,11,25,22.20
2009,07,10,11,26,22.20
2009,07,10,11,27,22.20
2009,07,10,11,28,22.30
2009,07,10,11,29,22.20
2009,07,10,11,30,22.20
2009,07,10,11,31,22.30
2009,07,10,11,32,22.30
2009,07,10,11,33,22.40
2009,07,10,11,34,22.40
2009,07,10,11,35,22.50
2009,07,10,11,36,22.50
2009,07,10,11,37,22.60
2009,07,10,11,38,22.50
2009,07,10,11,39,22.50
2009,07,10,11,40,22.50
2009,07,10,11,41,22.50
2009,07,10,11,42,22.60
2009,07,10,11,43,22.60
2009,07,10,11,44,22.60
2009,07,10,11,45,22.60
2009,07,10,11,46,22.60
2009,07,10,11,47,22.70
2009,07,10,11,48,22.80
2009,07,10,11,49,22.90
2009,07,10,11,50,22.90
2009,07,10,11,51,23.00
2009,07,10,11,52,23.00
2009,07,10,11,53,23.20
2009,07,10,11,54,23.20
2009,07,10,11,55,23.30
2009,07,10,11,56,23.30
2009,07,10,11,57,23.40
2009,07,10,11,58,23.40
2009,07,10,11,59,23.40
2009,07,10,12,00,23.40
2009,07,10,12,01,23.30
2009,07,10,12,02,23.10
2009,07,10,12,03,23.10
2009,07,10,12,04,23.10
2009,07,10,12,05,23.20
2009,07,10,12,06,23.30
2009,07,10,12,07,23.30
2009,07,10,12,08,23.20
2009,07,10,12,09,23.20
2009,07,10,12,10,23.20
2009,07,10,12,11,23.30
2009,07,10,12,12,23.30
2009,07,10,12,13,23.40
2009,07,10,12,14,23.50
2009,07,10,12,15,23.50
2009,07,10,12,16,23.60
2009,07,10,12,17,23.50
2009,07,10,12,18,23.50
2009,07,10,12,19,23.40
2009,07,10,12,20,23.20
2009,07,10,12,21,23.20
2009,07,10,12,22,23.30
2009,07,10,12,23,23.30
2009,07,10,12,24,23.40
2009,07,10,12,25,23.50
2009,07,10,12,26,23.50
2009,07,10,12,27,23.50
2009,07,10,12,28,23.40
2009,07,10,12,29,23.40
2009,07,10,12,30,23.30
2009,07,10,12,31,23.30
2009,07,10,12,32,23.30
2009,07,10,12,33,23.40
2009,07,10,12,34,23.40
2009,07,10,12,35,23.40
2009,07,10,12,36,23.40
2009,07,10,12,37,23.40
2009,07,10,12,38,23.30
2009,07,10,12,39,23.30
2009,07,10,12,40,23.30
2009,07,10,12,41,23.20
2009,07,10,12,42,23.20
2009,07,10,12,43,23.20
2009,07,10,12,44,23.30
2009,07,10,12,45,23.40
2009,07,10,12,46,23.50
2009,07,10,12,47,23.60
2009,07,10,12,48,23.70
2009,07,10,12,49,23.80
2009,07,10,12,50,24.00
2009,07,10,12,51,24.10
2009,07,10,12,52,24.10
2009,07,10,12,53,24.10
2009,07,10,12,54,24.10
2009,07,10,12,55,24.20
2009,07,10,12,56,24.20
2009,07,10,12,57,24.20
2009,07,10,12,58,24.20
2009,07,10,12,59,24.30
2009,07,10,13,00,24.50
2009,07,10,13,01,24.60
2009,07,10,13,02,24.70
2009,07,10,13,03,24.60
2009,07,10,13,04,24.60
2009,07,10,13,05,24.60
2009,07,10,13,06,24.50
2009,07,10,13,07,24.50
2009,07,10,13,08,24.50
2009,07,10,13,09,24.50
2009,07,10,13,10,24.50
2009,07,10,13,11,24.50
2009,07,10,13,12,24.50
2009,07,10,13,13,24.60
2009,07,10,13,14,24.50
2009,07,10,13,15,24.50
2009,07,10,13,16,24.50
2009,07,10,13,17,24.60
2009,07,10,13,18,24.60
2009,07,10,13,19,24.60
2009,07,10,13,20,24.60
2009,07,10,13,21,24.70
2009,07,10,13,22,24.70
2009,07,10,13,23,24.80
2009,07,10,13,24,24.90
2009,07,10,13,25,25.00
2009,07,10,13,26,25.10
2009,07,10,13,27,25.10
2009,07,10,13,28,25.10
2009,07,10,13,29,25.10
2009,07,10,13,30,25.10
2009,07,10,13,31,25.10
2009,07,10,13,32,25.00
2009,07,10,13,33,25.00
2009,07,10,13,34,24.90
2009,07,10,13,35,24.80
2009,07,10,13,36,24.80
2009,07,10,13,37,24.90
2009,07,10,13,38,24.90
2009,07,10,13,39,25.00
2009,07,10,13,40,25.00
2009,07,10,13,41,25.00
2009,07,10,13,42,25.10
2009,07,10,13,43,25.10
2009,07,10,13,44,25.10
2009,07,10,13,45,25.10
2009,07,10,13,46,25.20
2009,07,10,13,47,25.20
2009,07,10,13,48,25.10
2009,07,10,13,49,24.90
2009,07,10,13,50,24.70
2009,07,10,13,51,24.70
2009,07,10,13,52,24.70
2009,07,10,13,53,24.80
2009,07,10,13,54,24.90
2009,07,10,13,55,25.10
2009,07,10,13,56,25.20
2009,07,10,13,57,25.20
2009,07,10,13,58,25.20
2009,07,10,13,59,25.20
2009,07,10,14,00,25.30
2009,07,10,14,01,25.20
2009,07,10,14,02,25.10
2009,07,10,14,03,25.10
2009,07,10,14,04,25.10
2009,07,10,14,05,25.00
2009,07,10,14,06,25.00
2009,07,10,14,07,24.90
2009,07,10,14,08,24.70
2009,07,10,14,09,24.60
2009,07,10,14,10,24.60
2009,07,10,14,11,24.50
2009,07,10,14,12,24.50
2009,07,10,14,13,24.50
2009,07,10,14,14,24.50
2009,07,10,14,15,24.50
2009,07,10,14,16,24.60
2009,07,10,14,17,24.60
2009,07,10,14,18,24.50
2009,07,10,14,19,24.60
2009,07,10,14,20,24.60
2009,07,10,14,21,24.60
2009,07,10,14,22,24.70
2009,07,10,14,23,24.80
2009,07,10,14,24,24.80
2009,07,10,14,25,24.80
2009,07,10,14,26,24.90
2009,07,10,14,27,24.90
2009,07,10,14,28,24.90
2009,07,10,14,29,24.90
2009,07,10,14,30,24.90
2009,07,10,14,31,25.00
2009,07,10,14,32,25.00
2009,07,10,14,33,25.00
2009,07,10,14,34,25.00
2009,07,10,14,35,24.90
2009,07,10,14,36,24.90
2009,07,10,14,37,24.90
2009,07,10,14,38,24.80
2009,07,10,14,39,24.80
2009,07,10,14,40,24.90
2009,07,10,14,41,24.90
2009,07,10,14,42,24.90
2009,07,10,14,43,24.90
2009,07,10,14,44,24.90
2009,07,10,14,45,24.90
2009,07,10,14,46,24.90
2009,07,10,14,47,24.90
2009,07,10,14,48,24.90
2009,07,10,14,49,24.90
2009,07,10,14,50,24.90
2009,07,10,14,51,25.00
2009,07,10,14,52,25.00
2009,07,10,14,53,25.10
2009,07,10,14,54,25.20
2009,07,10,14,55,25.10
2009,07,10,14,56,25.20
2009,07,10,14,57,25.20
2009,07,10,14,58,25.10
2009,07,10,14,59,25.10
2009,07,10,15,00,25.00
2009,07,10,15,01,24.90
2009,07,10,15,02,24.80
2009,07,10,15,03,24.80
2009,07,10,15,04,24.90
2009,07,10,15,05,25.00
2009,07,10,15,06,25.00
2009,07,10,15,07,25.10
2009,07,10,15,08,25.20
2009,07,10,15,09,25.10
2009,07,10,15,10,25.10
2009,07,10,15,11,25.00
2009,07,10,15,12,25.00
2009,07,10,15,13,25.10
2009,07,10,15,14,25.00
2009,07,10,15,15,25.10
2009,07,10,15,16,25.20
2009,07,10,15,17,25.20
2009,07,10,15,18,25.10
2009,07,10,15,19,25.10
2009,07,10,15,20,25.10
2009,07,10,15,21,25.10
2009,07,10,15,22,25.10
2009,07,10,15,23,25.20
2009,07,10,15,24,25.30
2009,07,10,15,25,25.40
2009,07,10,15,26,25.60
2009,07,10,15,27,25.70
2009,07,10,15,28,25.80
2009,07,10,15,29,25.90
2009,07,10,15,30,25.90
2009,07,10,15,31,25.90
2009,07,10,15,32,26.00
2009,07,10,15,33,26.00
2009,07,10,15,34,26.00
2009,07,10,15,35,26.00
2009,07,10,15,36,25.90
2009,07,10,15,37,25.90
2009,07,10,15,38,25.90
2009,07,10,15,39,26.00
2009,07,10,15,40,26.10
2009,07,10,15,41,26.20
2009,07,10,15,42,26.30
2009,07,10,15,43,26.40
2009,07,10,15,44,26.50
2009,07,10,15,45,26.50
2009,07,10,15,46,26.40
2009,07,10,15,47,26.40
2009,07,10,15,48,26.40
2009,07,10,15,49,26.30
2009,07,10,15,50,26.30
2009,07,10,15,51,26.30
2009,07,10,15,52,26.30
2009,07,10,15,53,26.30
2009,07,10,15,54,26.30
2009,07,10,15,55,26.20
2009,07,10,15,56,26.20
2009,07,10,15,57,26.20
2009,07,10,15,58,26.20
2009,07,10,15,59,26.20
2009,07,10,16,00,26.20
2009,07,10,16,01,26.10
2009,07,10,16,02,26.10
2009,07,10,16,03,26.10
2009,07,10,16,04,26.10
2009,07,10,16,05,26.20
2009,07,10,16,06,26.30
2009,07,10,16,07,26.40
2009,07,10,16,08,26.40
2009,07,10,16,09,26.30
2009,07,10,16,10,26.30
2009,07,10,16,11,26.10
2009,07,10,16,12,26.00
2009,07,10,16,13,25.90
2009,07,10,16,14,25.90
2009,07,10,16,15,25.90
2009,07,10,16,16,25.90
2009,07,10,16,17,26.00
2009,07,10,16,18,26.10
2009,07,10,16,19,26.20
2009,07,10,16,20,26.20
2009,07,10,16,21,26.10
2009,07,10,16,22,26.10
2009,07,10,16,23,26.10
2009,07,10,16,24,26.10
2009,07,10,16,25,26.00
2009,07,10,16,26,25.90
2009,07,10,16,27,25.90
2009,07,10,16,28,25.80
2009,07,10,16,29,25.80
2009,07,10,16,30,25.80
2009,07,10,16,31,25.90
2009,07,10,16,32,26.00
2009,07,10,16,33,26.00
2009,07,10,16,34,26.00
2009,07,10,16,35,26.10
2009,07,10,16,36,26.10
2009,07,10,16,37,26.10
2009,07,10,16,38,26.20
2009,07,10,16,39,26.20
2009,07,10,16,40,26.20
2009,07,10,16,41,26.20
2009,07,10,16,42,26.30
2009,07,10,16,43,26.30
2009,07,10,16,44,26.40
2009,07,10,16,45,26.40
2009,07,10,16,46,26.40
2009,07,10,16,47,26.40
2009,07,10,16,48,26.40
2009,07,10,16,49,26.50
2009,07,10,16,50,26.50
2009,07,10,16,51,26.60
2009,07,10,16,52,26.70
2009,07,10,16,53,26.80
2009,07,10,16,54,26.60
2009,07,10,16,55,26.40
2009,07,10,16,56,26.30
2009,07,10,16,57,26.20
2009,07,10,16,58,26.20
2009,07,10,16,59,26.30
2009,07,10,17,00,26.30
2009,07,10,17,01,26.30
2009,07,10,17,02,26.30
2009,07,10,17,03,26.20
2009,07,10,17,04,26.20
2009,07,10,17,05,26.10
2009,07,10,17,06,26.10
2009,07,10,17,07,26.00
2009,07,10,17,08,26.10
2009,07,10,17,09,26.10
2009,07,10,17,10,26.10
2009,07,10,17,11,26.20
2009,07,10,17,12,26.20
2009,07,10,17,13,26.20
2009,07,10,17,14,26.20
2009,07,10,17,15,26.20
2009,07,10,17,16,26.30
2009,07,10,17,17,26.30
2009,07,10,17,18,26.30
2009,07,10,17,19,26.20
2009,07,10,17,20,26.10
2009,07,10,17,21,26.10
2009,07,10,17,22,26.10